Location: Sihaung
(22.8641°N, 94.0549°E)
Time: 12:48:11
(UTC+00:00)

SL-16 R/B - Pass Details

Date: 03 March 2021
Orbit: 843 x 845 km, 71.0° (Epoch: 16 April)

Event Time Altitude Azimuth Distance (km) Brightness Sun altitude
Exits shadow 21:41:32 - 0° (N) 2,696 4.9 -33.3°
Reaches altitude 10° 21:42:13 10° 3° (N) 2,465 4.7 -33.2°
Maximum altitude 21:47:21 35° 69° (ENE) 1,333 3.6 -32.0°
Drops below altitude 10° 21:52:28 10° 134° (SE) 2,458 5.0 -30.8°
Sets 21:55:06 0° 142° (SE) 3,390 5.7 -30.2°
